Temp
16 17 17 17 14 12 14 17 19 20 24 26 26 24 19 16 20 19 17 17 18 17 17 17 17 16 16 16 16 16 15 15 15 15 15 15 15 15 15 15 15 15 15 15 15 15 15 15 15
15 15 16 16 12 13 14 17 20 20 25 26 25 22 20 16 16 15 17 17 17 17 16 16 16 16 16 15 16 16 15 15 15 15 15 15 15 15 15 15 15 15 15 15 14 14 14 14 14
14 14 15 12 11 13 15 19 18 22 25 25 22 21 18 15 16 16 16 16 17 16 16 15 16 15 16 16 16 16 15 15 15 15 15 15 15 15 15 15 15 15 15 14 14 14 14 14 14
12 13 14 11 12 15 17 18 20 22 23 24 22 15 17 16 16 16 16 16 16 15 15 15 16 16 16 16 16 16 15 15 15 15 15 15 15 15 16 16 15 15 15 15 14 14 14 14 14
13 13 10 10 12 15 16 19 21 21 21 22 23 15 14 15 15 16 16 16 16 15 15 15 15 16 16 16 16 16 16 16 16 16 16 16 16 16 16 16 15 15 15 15 15 15 14 14 14
12 13 9 10 12 14 16 20 20 22 22 22 19 14 14 14 15 15 15 16 16 15 15 15 15 15 16 16 16 16 16 16 16 16 16 16 16 15 15 15 15 15 15 14 14 14 14 14 14
10 9 9 10 12 13 16 21 19 20 21 22 20 13 13 13 14 15 15 15 15 14 15 15 15 15 15 16 16 16 16 16 16 16 15 15 15 15 15 15 15 14 14 14 14 14 14 13 13
11 10 10 10 11 12 16 19 20 22 21 23 22 13 12 13 14 14 14 14 14 13 14 15 15 15 15 16 16 16 16 16 16 15 15 15 16 15 15 14 14 14 14 13 13 13 13 13 13
10 9 9 10 12 13 16 15 18 20 23 20 19 19 20 15 14 14 13 13 13 13 14 14 15 15 16 16 16 16 16 16 15 15 15 15 15 15 13 13 13 13 13 13 13 13 12 12 12
9 8 10 12 12 13 15 16 16 18 19 15 16 18 17 15 14 14 13 13 13 13 14 14 15 16 16 16 16 15 15 15 15 15 15 14 13 13 13 13 13 13 13 13 13 13 12 12 11
10 9 11 12 13 13 14 14 16 17 15 17 14 15 14 14 14 13 13 13 13 14 14 14 14 15 16 15 15 15 15 15 15 14 14 14 13 12 13 12 13 13 13 13 12 12 12 12 11
9 10 11 11 12 12 12 13 14 16 17 17 21 19 15 13 13 14 12 13 13 13 14 14 15 15 15 15 14 14 14 15 14 14 14 14 13 13 12 12 12 12 12 12 12 12 11 11 11
8 10 10 11 11 11 11 12 13 14 16 17 16 16 16 14 13 13 12 12 13 13 14 14 15 15 15 15 14 14 14 14 14 14 14 14 13 13 13 13 12 12 12 12 12 12 11 11 11
9 9 9 10 10 10 11 12 13 15 16 15 16 15 15 14 13 13 12 12 13 13 14 15 14 15 15 15 14 14 14 14 14 14 14 14 13 12 12 12 12 12 12 12 12 11 12 11 10
8 7 8 9 10 10 11 11 12 15 16 14 14 14 13 13 12 13 12 12 13 13 14 15 14 15 15 14 14 14 14 14 14 13 13 13 12 12 12 12 11 12 11 12 11 11 11 11 10
7 7 6 9 10 11 9 9 11 14 15 14 12 13 13 12 13 12 12 12 13 13 14 14 14 14 14 14 14 14 14 13 14 13 13 13 12 12 12 11 11 11 11 11 11 11 11 11 11
5 3 5 7 10 10 9 9 11 13 14 14 13 13 12 12 12 12 12 12 13 13 14 14 14 14 14 14 14 14 13 13 13 13 13 12 11 11 11 10 11 11 11 11 11 10 10 11 11
4 5 6 7 10 10 9 9 10 11 12 14 14 13 13 13 13 13 13 12 13 13 14 14 14 14 14 13 13 13 13 12 12 12 12 12 11 11 11 10 10 10 10 10 10 10 10 11 10
6 5 5 7 10 9 8 9 10 11 12 13 14 14 13 13 13 13 12 12 12 13 13 13 14 13 14 13 13 12 13 12 12 11 12 11 11 10 10 10 10 10 10 10 10 10 10 10 10
5 5 5 6 8 8 8 8 10 11 11 14 13 13 13 13 13 12 12 12 12 12 13 13 13 13 13 13 13 12 12 12 12 11 11 11 10 10 10 10 10 10 10 10 10 10 10 10 10
6 6 6 6 8 9 8 8 8 11 13 14 14 14 14 13 13 12 11 11 11 12 13 13 13 13 13 13 12 12 11 12 12 11 11 11 10 10 9 9 9 9 9 9 9 9 9 9 9
5 7 6 7 6 7 8 7 10 11 13 11 13 13 12 12 12 12 11 11 11 12 13 13 13 13 13 12 12 11 11 11 11 11 11 10 10 9 9 9 9 9 9 9 9 9 9 9 8
6 6 5 6 7 7 7 7 12 12 12 12 12 12 12 13 12 12 12 12 12 12 13 13 12 12 12 12 11 11 11 11 11 11 11 10 9 9 9 9 9 9 9 8 8 8 8 8 8
7 7 8 7 8 8 8 8 9 10 13 11 12 12 12 12 12 12 12 12 12 12 12 12 12 12 12 12 11 11 11 10 10 10 10 9 10 9 9 9 8 8 8 8 7 7 7 7 7
6 6 7 8 7 6 9 10 11 13 13 12 12 12 12 12 12 12 12 11 11 12 12 12 12 12 12 11 11 11 10 10 10 10 9 9 9 9 8 8 8 8 8 7 7 7 7 7 6
7 8 7 8 7 7 10 9 13 11 13 15 14 13 12 12 12 12 12 12 11 12 12 12 12 12 11 11 11 10 10 10 10 10 9 9 8 8 8 8 8 8 7 7 7 7 7 6 6
10 8 9 8 8 8 7 11 12 10 11 12 13 12 12 12 13 13 12 12 12 12 12 12 12 11 11 11 10 10 10 10 10 9 9 8 8 8 8 7 7 7 7 7 6 7 7 7 6
10 10 8 7 8 10 8 10 9 10 10 11 10 11 12 13 13 13 12 12 12 12 11 11 11 11 10 10 10 10 10 9 9 9 8 8 8 8 8 8 7 7 7 7 7 7 7 7 6
10 8 9 8 7 8 9 10 11 10 9 11 11 12 12 13 13 12 12 11 11 11 11 11 10 10 9 9 9 10 9 9 8 7 7 7 7 7 7 7 7 7 7 7 7 7 7 7 7
10 10 10 9 8 7 7 10 9 9 9 9 9 9 11 12 12 12 11 11 10 10 10 10 10 9 9 9 9 9 8 8 7 7 7 7 7 7 7 7 7 7 7 7 7 7 7 7 6
Height
1530 1530 1531 1533 1543 1543 1543 1529 1512 1510 1506 1502 1502 1503 1507 1513 1517 1531 1529 1533 1535 1538 1540 1543 1545 1546 1548 1550 1551 1551 1553 1554 1554 1554 1554 1555 1555 1555 1555 1554 1554 1554 1553 1553 1553 1552 1552 1552 1551
1530 1530 1531 1532 1545 1549 1539 1516 1513 1506 1504 1502 1503 1507 1508 1519 1518 1522 1527 1531 1535 1537 1540 1542 1544 1546 1547 1548 1550 1551 1552 1553 1553 1553 1553 1553 1554 1554 1553 1553 1553 1553 1553 1552 1552 1552 1551 1551 1551
1529 1530 1531 1533 1538 1536 1530 1509 1509 1503 1504 1501 1503 1507 1512 1518 1519 1521 1525 1529 1534 1537 1540 1542 1544 1545 1546 1548 1549 1550 1551 1552 1552 1552 1552 1552 1552 1552 1552 1552 1552 1552 1552 1551 1551 1551 1550 1550 1549
1528 1531 1531 1531 1528 1518 1513 1506 1504 1504 1502 1499 1500 1509 1515 1518 1518 1521 1525 1529 1533 1536 1539 1541 1543 1545 1546 1548 1549 1549 1550 1551 1551 1551 1551 1551 1551 1550 1550 1550 1550 1550 1550 1550 1549 1549 1549 1548 1548
1529 1531 1535 1530 1522 1515 1509 1506 1502 1505 1502 1499 1497 1510 1515 1519 1520 1522 1525 1529 1532 1535 1537 1540 1543 1545 1546 1547 1548 1549 1549 1550 1550 1550 1550 1549 1549 1549 1548 1548 1548 1548 1548 1547 1547 1547 1546 1546 1546
1529 1528 1537 1534 1525 1514 1508 1504 1505 1504 1501 1500 1500 1507 1516 1519 1520 1522 1524 1528 1532 1535 1537 1539 1542 1544 1546 1547 1548 1548 1548 1548 1549 1549 1548 1548 1547 1547 1547 1547 1546 1546 1546 1546 1545 1545 1545 1544 1544
1528 1530 1531 1526 1523 1517 1509 1500 1503 1505 1500 1498 1499 1509 1514 1517 1521 1522 1524 1527 1531 1534 1537 1539 1541 1543 1545 1546 1547 1547 1547 1547 1548 1548 1547 1547 1546 1546 1545 1545 1544 1544 1544 1544 1544 1544 1544 1544 1543
1527 1527 1524 1522 1522 1519 1506 1503 1505 1502 1502 1497 1493 1500 1509 1511 1518 1521 1522 1526 1530 1533 1536 1538 1540 1542 1544 1545 1546 1546 1546 1546 1547 1547 1546 1545 1545 1545 1544 1544 1543 1543 1543 1543 1543 1543 1543 1543 1543
1525 1527 1522 1520 1518 1514 1504 1508 1500 1501 1495 1492 1492 1492 1495 1503 1514 1518 1521 1525 1528 1531 1534 1536 1538 1540 1542 1543 1544 1545 1545 1545 1545 1545 1545 1544 1543 1543 1543 1542 1542 1542 1542 1542 1542 1542 1542 1542 1542
1522 1522 1516 1514 1513 1512 1506 1507 1505 1503 1495 1491 1491 1494 1496 1501 1509 1513 1517 1521 1525 1528 1532 1534 1536 1539 1540 1542 1543 1544 1544 1544 1544 1544 1543 1543 1543 1542 1542 1542 1541 1541 1541 1541 1541 1541 1541 1541 1541
1517 1513 1509 1511 1512 1512 1508 1505 1505 1503 1495 1486 1487 1494 1499 1499 1506 1512 1516 1520 1523 1527 1530 1533 1535 1537 1539 1540 1541 1542 1542 1543 1543 1543 1542 1542 1542 1542 1541 1541 1541 1541 1540 1540 1540 1540 1540 1540 1540
1517 1509 1509 1510 1511 1509 1508 1504 1501 1500 1495 1494 1480 1486 1493 1499 1501 1508 1514 1518 1521 1525 1528 1531 1533 1535 1537 1539 1540 1541 1541 1542 1542 1542 1541 1541 1541 1541 1540 1540 1540 1540 1540 1540 1540 1540 1539 1538 1538
1510 1504 1509 1510 1509 1506 1506 1498 1499 1494 1491 1491 1484 1482 1489 1497 1502 1509 1515 1517 1520 1524 1526 1529 1532 1533 1535 1537 1539 1539 1540 1541 1541 1541 1541 1541 1540 1540 1540 1540 1540 1540 1540 1540 1539 1539 1538 1538 1537
1506 1507 1506 1506 1506 1505 1504 1496 1496 1489 1488 1487 1484 1482 1487 1492 1498 1507 1512 1515 1519 1523 1525 1528 1531 1532 1534 1536 1537 1538 1539 1540 1540 1540 1540 1540 1540 1540 1540 1540 1540 1539 1539 1539 1539 1538 1537 1537 1537
1506 1507 1504 1502 1502 1502 1501 1493 1489 1487 1489 1489 1482 1482 1487 1492 1498 1504 1508 1513 1517 1522 1524 1526 1530 1531 1533 1535 1536 1537 1538 1539 1539 1540 1539 1539 1539 1540 1540 1540 1540 1539 1539 1538 1539 1537 1537 1536 1536
1505 1506 1507 1493 1496 1495 1501 1494 1484 1484 1486 1486 1484 1482 1486 1492 1496 1501 1507 1512 1517 1520 1522 1525 1529 1530 1531 1533 1536 1536 1537 1538 1538 1539 1539 1539 1539 1539 1539 1540 1539 1539 1538 1538 1538 1537 1536 1535 1534
1507 1514 1503 1499 1493 1492 1496 1494 1476 1482 1484 1484 1483 1484 1485 1491 1496 1501 1506 1510 1514 1518 1521 1524 1527 1529 1530 1532 1534 1536 1537 1537 1537 1537 1538 1538 1538 1538 1539 1539 1539 1538 1538 1537 1537 1536 1535 1534 1534
1504 1506 1498 1493 1487 1487 1490 1492 1478 1479 1482 1480 1480 1483 1486 1488 1492 1498 1504 1508 1513 1516 1520 1523 1525 1527 1529 1531 1533 1534 1535 1536 1536 1537 1537 1537 1538 1538 1538 1538 1538 1537 1537 1536 1536 1535 1535 1534 1533
1498 1498 1498 1492 1487 1488 1487 1488 1476 1475 1480 1477 1475 1478 1483 1486 1491 1497 1502 1506 1511 1514 1517 1520 1523 1526 1527 1529 1531 1533 1533 1534 1535 1536 1536 1536 1537 1537 1537 1537 1537 1536 1536 1535 1535 1535 1534 1533 1532
1496 1498 1495 1492 1489 1489 1486 1481 1468 1473 1475 1471 1473 1474 1479 1484 1490 1495 1500 1504 1507 1510 1515 1518 1521 1524 1526 1527 1530 1531 1532 1532 1533 1535 1535 1535 1536 1536 1536 1536 1536 1536 1535 1535 1534 1534 1533 1532 1532
1487 1486 1487 1487 1482 1481 1484 1477 1471 1467 1467 1466 1468 1469 1473 1476 1482 1490 1496 1500 1504 1507 1511 1516 1519 1522 1524 1526 1528 1529 1531 1530 1531 1533 1534 1534 1535 1535 1535 1535 1534 1534 1534 1534 1533 1532 1532 1531 1531
1482 1477 1481 1479 1482 1475 1473 1475 1461 1461 1457 1463 1465 1466 1471 1476 1482 1487 1494 1498 1502 1505 1509 1514 1517 1519 1522 1524 1526 1528 1529 1529 1530 1532 1532 1533 1534 1533 1534 1533 1533 1533 1533 1532 1532 1531 1531 1530 1529
1472 1473 1471 1465 1471 1472 1468 1476 1448 1454 1458 1458 1458 1460 1467 1473 1477 1482 1489 1495 1500 1503 1506 1511 1515 1517 1520 1523 1525 1526 1527 1528 1529 1530 1530 1531 1531 1532 1532 1531 1531 1531 1530 1530 1530 1529 1529 1528 1528
1469 1466 1455 1456 1460 1460 1455 1460 1454 1450 1446 1453 1454 1457 1462 1468 1475 1481 1488 1493 1498 1501 1504 1508 1512 1515 1518 1521 1523 1524 1525 1526 1527 1528 1530 1530 1530 1530 1530 1529 1529 1528 1528 1528 1528 1527 1527 1526 1525
1471 1469 1462 1457 1468 1469 1449 1455 1437 1430 1437 1444 1447 1453 1458 1464 1471 1476 1483 1488 1493 1496 1500 1505 1509 1512 1516 1518 1521 1522 1523 1525 1525 1526 1528 1528 1528 1527 1528 1527 1526 1526 1525 1525 1525 1525 1524 1524 1523
1464 1463 1465 1459 1464 1461 1443 1453 1433 1431 1431 1433 1438 1445 1454 1460 1466 1472 1478 1484 1489 1493 1497 1501 1506 1510 1513 1516 1518 1520 1521 1522 1523 1524 1525 1526 1526 1526 1525 1525 1524 1524 1523 1523 1522 1522 1521 1520 1519
1454 1465 1456 1457 1453 1454 1454 1436 1431 1427 1430 1434 1440 1444 1450 1455 1462 1468 1475 1480 1485 1490 1495 1499 1503 1507 1511 1514 1515 1517 1519 1520 1521 1522 1523 1523 1524 1524 1523 1523 1522 1521 1521 1521 1520 1519 1518 1517 1516
1454 1456 1463 1465 1460 1451 1452 1441 1440 1432 1433 1433 1440 1443 1447 1453 1460 1467 1473 1478 1483 1489 1494 1498 1502 1505 1508 1511 1513 1515 1516 1518 1519 1520 1521 1522 1521 1522 1521 1521 1520 1519 1519 1519 1518 1516 1514 1512 1511
1456 1460 1462 1466 1468 1461 1453 1441 1432 1431 1432 1428 1434 1439 1443 1450 1457 1465 1471 1477 1482 1487 1491 1495 1499 1502 1505 1508 1511 1512 1514 1516 1516 1518 1519 1519 1519 1520 1519 1518 1518 1517 1517 1516 1514 1513 1511 1509 1507
1454 1453 1455 1462 1467 1464 1463 1442 1431 1428 1430 1431 1434 1440 1444 1450 1457 1464 1470 1475 1479 1484 1489 1493 1496 1500 1503 1506 1508 1510 1512 1513 1514 1515 1516 1517 1518 1518 1518 1517 1516 1516 1515 1513 1512 1510 1507 1505 1502
Wind_Speed
3 6 5 3 2 3 4 8 5 8 4 0 5 5 9 8 2 5 15 18 16 17 20 18 16 15 13 10 9 8 8 7 5 4 2 0 1 2 3 3 2 4 4 4 4 5 5 5 5
2 3 3 1 4 3 5 6 9 7 6 8 11 8 8 3 8 23 21 16 15 17 21 19 16 15 13 12 10 8 6 4 3 2 1 2 3 3 3 2 2 3 3 3 4 4 4 5 5
2 1 2 4 4 7 5 6 10 23 17 8 7 12 6 6 21 26 24 24 20 17 20 18 18 16 13 11 9 7 5 3 2 2 3 4 5 5 6 5 5 5 6 6 6 6 6 7 7
5 1 4 3 9 6 6 7 6 3 8 9 15 10 8 4 28 23 26 23 21 22 21 21 18 14 12 10 8 6 4 3 3 3 4 5 5 6 6 6 6 7 7 7 8 8 8 8 8
1 2 3 4 7 6 6 20 20 6 4 11 14 7 7 18 15 24 25 23 23 23 22 20 16 14 11 9 6 4 3 3 3 4 4 4 4 5 5 5 5 6 6 6 7 7 7 7 7
1 2 2 6 8 7 10 26 14 10 10 12 9 11 8 16 19 27 25 24 23 22 22 20 17 13 10 8 6 4 3 2 2 2 3 4 4 5 5 6 6 6 6 6 6 6 6 6 6
3 2 4 5 6 6 9 31 5 12 8 11 17 6 12 20 20 26 25 26 25 22 21 19 16 13 10 7 5 4 3 2 1 1 2 3 4 5 5 5 6 6 6 6 6 6 5 5 4
2 2 3 5 3 6 11 24 15 19 15 19 23 10 10 26 31 28 25 26 24 22 20 19 16 13 10 7 6 4 3 1 0 1 2 4 5 4 4 4 4 4 4 4 4 4 4 3 3
7 3 5 6 5 3 34 9 29 29 20 5 3 13 11 33 37 33 29 27 26 24 22 20 17 13 10 8 6 4 3 2 1 1 3 4 5 5 4 3 3 3 2 3 3 2 1 1 1
7 4 8 6 7 5 29 11 25 15 17 6 16 14 21 43 42 38 36 32 28 25 23 19 16 14 10 8 6 5 3 2 1 1 3 3 2 2 1 3 2 1 1 1 1 0 0 2 3
5 11 12 11 16 24 25 21 24 11 9 11 24 26 37 47 43 39 35 32 29 25 23 20 17 13 11 9 7 5 3 1 1 2 3 4 2 1 2 2 2 2 1 1 1 3 3 1 2
13 20 17 13 24 29 19 29 20 15 21 26 24 26 40 44 45 41 35 32 31 27 23 20 17 14 12 10 8 6 3 1 1 2 3 3 1 0 0 1 2 2 2 2 2 3 3 3 3
13 18 19 20 22 25 21 26 20 26 31 14 28 33 37 42 39 37 31 29 28 26 24 21 18 15 13 11 9 6 3 1 1 2 2 2 1 1 1 1 2 2 2 3 3 2 3 3 3
6 11 14 20 23 21 16 22 19 23 27 8 31 33 36 40 39 36 31 30 28 26 24 22 19 16 14 12 9 5 3 1 1 2 2 2 1 1 1 1 2 2 2 3 3 2 3 3 3
13 8 6 8 15 9 12 18 10 25 27 15 32 33 32 36 35 37 34 31 29 26 24 21 19 17 14 12 9 6 3 1 1 2 2 2 1 1 1 1 1 2 2 2 2 2 3 3 6
3 3 4 10 9 11 6 13 12 20 16 17 22 30 29 33 34 37 33 30 27 27 25 22 19 17 14 12 9 6 4 2 1 2 2 2 1 1 2 1 1 2 2 2 1 2 3 4 6
5 3 6 4 11 6 5 6 17 17 22 21 26 27 31 33 32 33 31 29 29 27 25 22 19 16 14 11 8 6 3 2 0 2 2 2 1 1 2 1 2 2 2 2 1 1 4 5 6
4 4 6 9 5 9 7 12 22 27 22 25 30 29 31 36 38 35 30 28 27 26 24 21 19 17 14 11 8 6 4 3 0 1 2 2 1 1 1 1 2 2 2 2 3 3 4 5 6
2 5 7 3 4 3 5 9 20 23 25 20 32 33 30 36 36 32 28 28 27 26 25 23 20 18 14 11 8 8 5 4 1 1 1 1 1 0 1 1 1 2 3 3 4 4 5 6 7
12 13 15 10 12 8 4 14 19 17 22 23 24 30 34 35 35 33 31 30 30 28 24 23 20 16 14 10 8 6 5 2 1 1 0 0 0 1 1 1 2 4 4 5 5 6 6 7 7
15 17 13 14 7 11 4 12 14 18 30 20 29 38 42 45 42 38 36 34 30 28 25 22 19 16 13 10 8 6 6 3 1 1 1 0 1 2 3 3 4 5 5 6 6 7 7 7 8
17 15 20 20 11 6 16 5 15 17 13 7 23 31 32 38 39 40 38 35 33 28 23 21 19 16 13 11 8 7 5 4 3 2 1 2 3 3 4 5 5 5 6 6 7 7 8 8 8
11 11 17 18 17 4 17 3 14 12 14 16 20 31 38 43 43 42 39 35 33 28 25 22 19 16 14 12 9 7 6 4 3 3 3 4 4 4 4 5 5 6 7 7 7 8 8 9 9
7 9 5 5 3 4 12 10 4 11 19 13 18 32 39 44 43 40 37 34 31 28 24 23 20 17 15 12 10 7 5 5 4 4 4 5 4 4 4 4 5 7 7 8 8 8 9 10 11
8 6 2 1 1 4 9 10 10 18 14 14 17 31 38 44 43 40 37 36 33 30 26 24 21 18 16 14 11 8 6 6 5 5 5 5 5 5 5 5 5 6 7 8 8 9 10 12 12
8 4 1 3 2 3 3 6 11 4 15 30 36 39 40 43 42 38 37 37 34 29 27 24 21 19 17 15 12 10 8 7 6 5 5 4 4 5 6 7 7 8 8 9 9 10 11 13 14
2 1 3 2 1 2 2 2 3 6 6 14 20 32 35 41 41 37 35 34 32 29 26 23 21 19 17 14 13 11 9 7 6 5 5 4 4 5 6 6 7 8 8 9 10 11 11 13 14
2 2 4 4 4 2 4 4 3 6 5 13 11 21 33 41 38 34 31 30 28 25 22 21 20 18 16 14 13 10 8 7 6 5 5 5 5 5 6 6 6 6 7 9 10 11 12 14 15
2 2 3 2 1 2 3 5 2 6 7 20 15 27 38 41 37 34 31 28 25 23 22 21 19 18 17 14 11 9 8 7 5 6 6 5 5 6 5 4 6 7 8 9 11 13 15 17 19
2 3 4 2 4 1 2 5 3 5 7 8 19 25 34 38 35 31 28 26 24 23 22 20 19 18 15 12 10 9 8 7 8 7 5 4 4 2 2 3 5 7 9 12 13 15 17 19 21
Wind_Direction
272 198 164 142 79 80 218 243 271 302 293 295 63 77 109 58 111 162 143 178 194 180 170 169 165 161 158 155 150 147 143 147 146 145 147 139 36 34 21 358 351 338 347 347 348 348 345 345 350
240 171 171 215 132 187 244 231 232 239 266 128 99 116 50 74 99 129 141 173 185 178 171 163 162 163 165 160 156 159 164 166 172 204 261 293 297 295 274 270 278 301 318 332 338 337 334 336 336
152 102 199 160 193 201 221 238 224 250 243 159 112 83 85 110 138 144 160 167 178 179 174 162 170 169 164 162 162 168 171 188 222 260 284 294 300 302 304 300 290 282 277 275 278 282 295 304 308
10 333 255 212 231 252 230 272 229 242 208 162 137 75 97 151 153 157 158 176 182 171 174 170 175 170 170 168 171 179 197 226 262 282 292 296 301 306 308 305 297 290 285 279 278 281 284 287 289
350 294 280 252 239 274 263 259 271 272 250 160 149 139 98 143 166 159 167 179 181 171 175 170 173 173 173 176 185 194 224 257 284 297 305 310 317 312 310 308 305 300 298 295 295 295 295 297 298
201 195 272 255 269 279 273 268 279 240 216 173 104 112 140 159 167 161 176 178 181 182 175 172 172 177 180 186 191 205 230 259 284 311 322 320 317 318 323 326 319 316 317 318 318 316 317 322 325
157 102 225 270 279 285 254 265 226 270 206 204 162 103 147 164 175 166 172 180 181 183 178 175 176 182 186 190 200 210 216 225 279 326 321 314 311 320 325 321 323 327 327 330 333 338 345 354 358
266 181 232 228 220 290 278 285 283 270 252 215 184 163 170 173 170 172 173 179 177 184 182 178 180 185 188 193 197 200 200 193 206 314 299 308 322 327 339 340 334 332 337 345 348 354 354 360 23
247 250 236 237 222 268 289 316 304 308 237 150 123 159 176 164 168 175 173 174 181 183 178 180 185 180 179 181 186 190 186 177 133 300 307 330 331 347 347 2 10 17 24 31 38 45 14 322 347
212 213 235 248 271 285 272 306 322 320 289 83 101 137 152 160 173 180 181 181 184 179 176 181 185 176 176 178 178 177 168 161 102 360 329 335 353 322 335 30 54 28 12 98 136 269 61 302 297
226 241 248 277 272 264 278 299 304 313 285 189 153 150 159 165 177 187 183 187 188 185 181 180 180 181 176 177 177 168 172 130 60 3 335 338 360 331 3 21 42 55 20 34 303 332 348 356 232
254 254 250 275 275 279 284 291 300 291 276 315 189 178 167 173 182 189 187 189 187 185 182 182 182 179 175 178 175 170 174 202 32 13 339 345 10 182 349 352 23 24 18 356 348 334 320 297 303
248 255 271 279 285 284 300 294 274 289 297 283 178 171 174 181 184 189 192 186 184 185 182 182 183 178 180 180 181 182 180 198 31 8 354 5 47 360 30 3 37 34 358 351 345 340 273 297 295
272 289 281 272 268 294 282 292 272 269 288 224 184 176 179 185 186 188 192 188 188 188 183 182 182 182 180 181 189 182 202 247 26 5 17 30 52 69 358 30 26 29 351 353 355 309 308 333 314
263 281 293 256 263 270 301 284 252 268 283 197 184 182 181 183 186 191 193 192 190 188 184 183 182 183 180 181 185 187 210 246 348 35 24 35 41 4 19 19 352 26 16 7 359 287 319 338 331
246 181 215 236 234 245 141 266 277 266 284 185 174 174 179 178 188 194 193 195 192 189 185 183 183 182 180 183 183 192 203 229 332 34 15 24 21 350 349 20 17 35 39 359 30 272 307 337 354
230 209 228 304 221 235 173 276 276 288 262 205 180 174 176 178 187 192 192 196 193 189 186 184 183 184 182 185 187 194 199 206 316 26 3 15 15 357 354 30 28 30 16 351 357 312 305 331 341
181 208 231 220 219 212 223 247 276 280 288 209 187 180 178 182 184 187 192 194 190 189 187 185 185 186 185 189 189 195 195 188 139 6 359 27 24 1 50 15 358 13 2 348 349 340 321 329 335
239 243 258 341 246 234 223 251 253 268 285 213 186 180 180 180 179 182 189 192 189 189 188 187 188 187 190 192 194 190 183 172 144 341 11 23 58 359 7 347 338 341 337 341 348 340 332 334 337
248 262 268 280 260 251 251 256 253 268 261 212 190 174 177 171 174 178 186 190 193 188 188 188 189 189 190 193 194 189 184 168 176 286 314 4 139 296 304 304 318 325 336 341 341 341 341 343 346
229 238 244 246 276 238 230 268 264 257 244 211 194 181 182 178 177 180 187 192 192 191 189 191 189 191 190 189 190 198 198 206 222 228 214 350 285 292 296 301 315 322 329 333 335 336 338 342 343
248 232 243 242 233 235 172 259 211 230 210 190 188 177 174 175 179 181 186 192 196 192 190 193 193 194 189 187 191 200 213 206 204 212 218 285 302 303 297 305 315 319 322 323 324 328 328 332 331
253 246 235 230 217 234 177 274 220 207 207 205 189 173 175 182 186 186 193 197 198 192 191 195 196 195 192 193 193 204 215 220 232 247 283 300 310 312 317 315 315 311 311 309 312 316 315 315 314
241 307 279 185 134 230 198 188 243 185 202 197 181 172 178 185 191 195 200 200 197 193 193 197 199 198 197 199 203 211 223 227 229 249 275 291 308 316 328 329 321 310 306 304 304 303 303 303 304
232 289 336 160 198 225 200 204 236 189 184 185 169 177 181 185 192 195 198 199 197 193 195 199 202 202 201 205 211 220 232 242 244 264 281 297 309 320 319 323 321 320 316 309 305 305 306 304 303
190 189 313 330 159 244 135 214 222 181 216 187 175 176 178 185 193 195 198 197 197 196 199 202 204 205 206 210 215 224 234 243 250 270 277 283 290 296 306 316 320 322 322 319 314 311 308 304 305
350 80 244 282 297 63 256 272 302 22 195 174 169 165 174 181 188 192 193 196 197 198 201 204 206 206 209 212 217 224 233 238 250 252 253 260 279 289 297 304 311 314 314 311 310 315 317 312 314
171 352 28 2 343 270 284 273 218 164 201 165 162 166 171 179 182 187 190 193 197 200 201 204 207 210 209 210 215 222 226 228 231 237 250 262 277 288 300 310 314 320 324 323 322 322 321 314 314
192 102 145 118 264 336 304 252 169 231 206 167 173 176 173 178 178 181 186 191 195 198 201 201 200 201 203 208 212 217 224 224 230 237 246 261 280 293 306 324 336 334 326 323 323 322 319 315 314
289 209 139 124 330 207 242 283 331 278 160 147 139 151 164 171 172 179 185 188 189 191 190 189 188 191 194 199 205 204 206 210 218 223 235 258 264 265 322 333 330 329 331 329 325 319 315 310 307